Jerome, ID

9:06 PM MDT on April 19, 2018 (GMT -0600)
Jerome County

Weather History for KJER - March, 2013

Change the Weather History Date:

Wednesday, March 6, 2013

  Actual Average Record
Temperature  
Mean Temperature 43 °F 37 °F  
Max Temperature 56 °F 47 °F 69 °F (1950)
Min Temperature 30 °F 28 °F 8 °F (1976)
Degree Days  
Heating Degree Days 22 28  
Month to date heating degree days 162 173  
Since 1 July heating degree days 4787 5060  
Cooling Degree Days 0 0  
Month to date cooling degree days 0 0  
Year to date cooling degree days 0 0  
Moisture  
Dew Point 27 °F    
Average Humidity 53    
Maximum Humidity 64    
Minimum Humidity 42    
Precipitation  
Precipitation 0.02 in 0.02 in 0.25 in (1950)
Month to date precipitation 0.09 0.15  
Year to date precipitation 1.08 2.09  
Sea Level Pressure  
Sea Level Pressure 29.81 in    
Wind  
Wind Speed 15 mph (West)    
Max Wind Speed 35 mph    
Max Gust Speed 44 mph    
Visibility 10 miles    
Events Rain , Thunderstorm    
T = Trace of Precipitation, MM = Missing Value Source: NWS Daily Summary

Daily Weather History Graph

Daily Weather History Graph

Search for Another Location

Airport or City:

Astronomy

Mar. 06, 2013 Rise Set
Actual Time 7:04 AM MST 6:33 PM MST
Civil Twilight 6:36 AM MST 7:02 PM MST
Nautical Twilight 6:03 AM MST 7:34 PM MST
Astronomical Twilight 5:31 AM MST 8:07 PM MST
Moon 3:23 AM MST (3/6) 1:14 PM MST (3/6)
Length of Visible Light 12h 25m
Length of Day
11h 29m
Waning Crescent, 29% of the Moon is Illuminated
Mar 6
Waning Crescent
Mar 11
New
Mar 19
First Quarter
Mar 27
Full
Apr 2
Last Quarter

Hourly Weather History & Observations

Time (MST) Temp. Windchill Dew Point Humidity Pressure Visibility Wind Dir Wind Speed Gust Speed Precip Events Conditions
12:53 AM 34.0 °F 21.5 °F 19.9 °F 56% 29.83 in 10.0 mi NE 24.2 mph 31.1 mph N/A   Clear
1:53 AM 33.1 °F 20.3 °F 19.0 °F 56% 29.81 in 10.0 mi NE 24.2 mph 33.4 mph N/A   Partly Cloudy
2:53 AM 33.1 °F 20.3 °F 19.9 °F 59% 29.78 in 10.0 mi NE 24.2 mph - N/A   Clear
3:53 AM 33.1 °F 20.6 °F 19.9 °F 59% 29.76 in 10.0 mi NE 23.0 mph - N/A   Clear
4:53 AM 34.0 °F 22.1 °F 21.0 °F 59% 29.76 in 10.0 mi NE 21.9 mph - N/A   Clear
5:53 AM 35.1 °F 25.2 °F 21.9 °F 59% 29.78 in 10.0 mi NE 16.1 mph 21.9 mph N/A   Overcast
6:53 AM 33.1 °F 23.4 °F 21.9 °F 64% 29.79 in 10.0 mi NNE 13.8 mph - N/A   Mostly Cloudy
7:53 AM 36.0 °F 28.5 °F 23.0 °F 59% 29.77 in 10.0 mi ENE 10.4 mph - N/A   Partly Cloudy
8:53 AM 44.1 °F 40.1 °F 26.1 °F 49% 29.75 in 10.0 mi NE 6.9 mph - N/A   Scattered Clouds
9:53 AM 48.0 °F - 27.0 °F 44% 29.73 in 10.0 mi ENE 8.1 mph - N/A   Scattered Clouds
10:53 AM 51.1 °F - 30.0 °F 44% 29.72 in 10.0 mi Variable 3.5 mph 16.1 mph N/A   Mostly Cloudy
11:53 AM 50.0 °F - 32.0 °F 50% 29.72 in 10.0 mi NNW 4.6 mph - N/A   Mostly Cloudy
12:41 PM 55.4 °F - 30.2 °F 38% 29.72 in 10.0 mi West 16.1 mph 19.6 mph N/A Thunderstorm Scattered Clouds
12:53 PM 50.0 °F - 33.1 °F 52% 29.73 in 10.0 mi WNW 25.3 mph 43.7 mph N/A Thunderstorm Scattered Clouds
1:04 PM 48.2 °F - 35.6 °F 62% 29.73 in 10.0 mi WNW 20.7 mph 27.6 mph N/A   Scattered Clouds
1:53 PM 39.9 °F 28.2 °F 35.1 °F 83% 29.82 in 6.0 mi WSW 31.1 mph 41.4 mph 0.01 in Rain Rain
2:02 PM 42.8 °F 33.5 °F 37.4 °F 81% 29.78 in 10.0 mi WSW 23.0 mph 31.1 mph 0.01 in Rain Light Rain
2:20 PM 42.8 °F 34.0 °F 35.6 °F 76% 29.77 in 10.0 mi WSW 20.7 mph 32.2 mph 0.01 in   Scattered Clouds
2:53 PM 45.0 °F 37.9 °F 35.1 °F 68% 29.78 in 10.0 mi WSW 16.1 mph - 0.01 in   Scattered Clouds
3:53 PM 42.1 °F 33.6 °F 33.1 °F 70% 29.83 in 10.0 mi WSW 18.4 mph 27.6 mph 0.00 in Rain Light Rain
4:53 PM 44.1 °F 36.8 °F 28.9 °F 55% 29.84 in 10.0 mi SW 16.1 mph 26.5 mph 0.00 in   Scattered Clouds
5:53 PM 43.0 °F 35.7 °F 26.1 °F 51% 29.85 in 10.0 mi SSW 15.0 mph - N/A   Overcast
6:53 PM 42.1 °F 34.5 °F 25.0 °F 51% 29.87 in 10.0 mi SSW 15.0 mph - N/A   Mostly Cloudy
7:53 PM 39.0 °F 31.0 °F 19.9 °F 46% 29.91 in 10.0 mi West 13.8 mph - N/A   Mostly Cloudy
8:53 PM 35.1 °F 27.4 °F 24.1 °F 64% 29.91 in 10.0 mi SW 10.4 mph - N/A   Clear
9:53 PM 35.1 °F 32.2 °F 23.0 °F 61% 29.94 in 10.0 mi WSW 3.5 mph - N/A   Clear
10:53 PM 32.0 °F 24.8 °F 21.9 °F 66% 29.96 in 10.0 mi West 8.1 mph - N/A   Clear
11:53 PM 32.0 °F 25.6 °F 21.9 °F 66% 29.98 in 10.0 mi SSW 6.9 mph - N/A   Clear